Hourly Data Report for July 05, 2021

BORDEN AWOS
ONTARIO
Current Station Operator: DND

44°16'20.000" N
79°54'42.000" W
222.50 m
611B002
71534
YBN

Download Data

Hourly Data (July 2021)
Hourly Data Report for July 5, 2021
TIME
LST
Temp Definition
°C
Dew Point Definition
°C
Rel Hum Definition
%
Precip. Amount Definition
mm

Wind Dir Definition
10's deg

Wind Spd Definition
km/h
Visibility Definition
km
Stn Press Definition
kPa
Hmdx Definition


Wind Chill Definition


Weather Definition


00:00 17.8 12.5 71   17 9 14.5 98.80     LegendNANA
01:00 17.6 11.0 65   18 11 14.5 98.78     LegendNANA
02:00 17.9 11.4 66   17 11 14.5 98.75     LegendNANA
03:00 18.1 12.6 70   15 15 14.5 98.70     LegendNANA
04:00 17.7 13.5 76   16 11 14.5 98.68     LegendNANA
05:00 17.7 14.1 79   15 15 14.5 98.68     LegendNANA
06:00 18.6 14.6 78   16 7 14.5 98.67     LegendNANA
07:00 21.5 14.5 64   18 15 14.5 98.68 25   LegendNANA
08:00 24.0 15.5 59   18 15 14.5 98.66 28   LegendNANA
09:00 26.6 16.8 55   18 15 14.5 98.67 32   LegendNANA
10:00 27.9 18.0 55   18 15 14.5 98.63 34   LegendNANA
11:00 30.0 19.7 54   21 13 14.5 98.59 37   LegendNANA
12:00 29.7 20.0 56   26 15 14.5 98.55 37   LegendNANA
13:00 30.4 20.3 55   23 19 14.5 98.51 38   LegendNANA
14:00 32.6 19.9 47   22 22 14.5 98.47 40   LegendNANA
15:00 31.2 19.7 51   23 28 14.5 98.43 39   LegendNANA
16:00 30.0 19.9 55   25 19 14.5 98.40 37   LegendNANA
17:00 26.0 20.0 70   23 4 14.5 98.51 34   LegendNANA
18:00 19.9 19.0 95   10 17 1.6 98.60     Heavy Rain
19:00 19.9 19.6 98   20 9 14.5 98.43     LegendNANA
20:00 20.1 19.5 96   17 11 14.5 98.49 27   LegendNANA
21:00 20.2 19.4 95   20 11 14.5 98.50 27   LegendNANA
22:00 20.1 19.6 97   19 7 14.5 98.48 27   LegendNANA
23:00 20.5 19.9 96   14 4 14.5 98.50 28   LegendNANA

Notes on Data Quality.

Legend

  • E = Estimated
  • M = Missing
  • NA = Not Available*
  • [empty] = Indicates an unobserved value
Date modified: